Time,TemperatureF,DewpointF,PressureIn,WindDirection,WindDirectionDegrees,WindSpeedMPH,WindSpeedGustMPH,Humidity,HourlyPrecipIn,Conditions,Clouds,dailyrainin,SoftwareType,DateUTC
2013-04-04 00:02:00,46.0,28.0,29.93,East,90,0.0,0.0,49,0.00,,,0.01,,2013-04-04 05:02:00,
2013-04-04 00:13:00,46.0,28.0,29.93,East,90,0.0,0.0,49,0.00,,,0.01,,2013-04-04 05:13:00,
2013-04-04 00:23:00,46.0,28.0,29.93,NE,45,0.0,0.0,49,0.00,,,0.01,,2013-04-04 05:23:00,
2013-04-04 00:32:00,46.0,28.0,29.93,NE,45,0.0,0.0,50,0.00,,,0.01,,2013-04-04 05:32:00,
2013-04-04 00:42:00,46.0,28.0,29.93,NE,45,0.0,0.0,50,0.00,,,0.01,,2013-04-04 05:42:00,
2013-04-04 00:53:00,46.0,31.0,29.93,North,360,0.0,4.0,55,0.00,,,0.00,,2013-04-04 05:53:00,
2013-04-04 01:02:00,44.0,32.0,29.91,North,360,0.0,0.0,63,0.00,,,0.00,,2013-04-04 06:02:00,
2013-04-04 01:12:00,44.0,32.0,29.91,North,360,0.0,0.0,63,0.00,,,0.00,,2013-04-04 06:12:00,
2013-04-04 01:22:00,44.0,33.0,29.91,North,360,0.0,1.0,65,0.00,,,0.00,,2013-04-04 06:22:00,
2013-04-04 01:32:00,44.0,33.0,29.91,North,360,0.0,1.0,65,0.00,,,0.00,,2013-04-04 06:32:00,
2013-04-04 01:42:00,44.0,33.0,29.91,North,360,0.0,1.0,65,0.00,,,0.00,,2013-04-04 06:42:00,
2013-04-04 01:52:00,42.0,34.0,29.88,NW,315,0.0,1.0,72,0.05,,,0.05,,2013-04-04 06:52:00,
2013-04-04 02:02:00,42.0,35.0,29.86,NW,315,0.0,2.0,77,0.13,,,0.13,,2013-04-04 07:02:00,
2013-04-04 02:12:00,42.0,35.0,29.86,NW,315,0.0,2.0,77,0.13,,,0.13,,2013-04-04 07:12:00,
2013-04-04 02:22:00,42.0,35.0,29.88,SW,225,0.0,1.0,77,0.14,,,0.15,,2013-04-04 07:22:00,
2013-04-04 02:32:00,42.0,35.0,29.87,NW,315,0.0,2.0,77,0.12,,,0.17,,2013-04-04 07:32:00,
2013-04-04 02:43:00,42.0,35.0,29.87,NW,315,0.0,2.0,77,0.12,,,0.17,,2013-04-04 07:43:00,
2013-04-04 02:52:00,42.0,35.0,29.88,NW,315,0.0,0.0,77,0.12,,,0.20,,2013-04-04 07:52:00,
2013-04-04 03:02:00,42.0,36.0,29.88,South,180,2.0,4.0,80,0.09,,,0.21,,2013-04-04 08:02:00,
2013-04-04 03:12:00,42.0,36.0,29.88,South,180,2.0,4.0,80,0.09,,,0.21,,2013-04-04 08:12:00,
2013-04-04 03:22:00,42.0,37.0,29.89,South,180,2.0,4.0,83,0.08,,,0.24,,2013-04-04 08:22:00,
2013-04-04 03:32:00,42.0,38.0,29.89,South,180,2.0,5.0,84,0.07,,,0.24,,2013-04-04 08:32:00,
2013-04-04 03:43:00,42.0,38.0,29.89,South,180,2.0,5.0,84,0.07,,,0.24,,2013-04-04 08:43:00,
2013-04-04 03:52:00,42.0,38.0,29.89,South,180,2.0,5.0,84,0.07,,,0.24,,2013-04-04 08:52:00,
2013-04-04 04:02:00,42.0,39.0,29.89,South,180,3.0,7.0,89,0.12,,,0.33,,2013-04-04 09:02:00,
2013-04-04 04:12:00,42.0,39.0,29.89,South,180,3.0,7.0,89,0.12,,,0.33,,2013-04-04 09:12:00,
2013-04-04 04:22:00,42.0,39.0,29.88,South,180,0.0,8.0,90,0.12,,,0.35,,2013-04-04 09:22:00,
2013-04-04 04:33:00,42.0,40.0,29.89,SW,225,0.0,2.0,91,0.13,,,0.37,,2013-04-04 09:33:00,
2013-04-04 04:43:00,42.0,40.0,29.89,SW,225,0.0,2.0,91,0.13,,,0.37,,2013-04-04 09:43:00,
2013-04-04 04:54:00,42.0,40.0,29.88,South,180,0.0,2.0,91,0.07,,,0.37,,2013-04-04 09:54:00,
2013-04-04 05:04:00,42.0,40.0,29.88,SW,225,0.0,2.0,91,0.04,,,0.37,,2013-04-04 10:04:00,
2013-04-04 05:12:00,42.0,40.0,29.88,SW,225,0.0,2.0,91,0.04,,,0.37,,2013-04-04 10:12:00,
2013-04-04 05:23:00,42.0,40.0,29.88,SSE,158,0.0,2.0,92,0.01,,,0.37,,2013-04-04 10:23:00,
2013-04-04 05:33:00,42.0,40.0,29.88,South,180,0.0,2.0,91,0.00,,,0.37,,2013-04-04 10:33:00,
2013-04-04 05:42:00,42.0,40.0,29.88,South,180,0.0,2.0,91,0.00,,,0.37,,2013-04-04 10:42:00,
2013-04-04 05:53:00,42.0,40.0,29.88,South,180,0.0,3.0,91,0.00,,,0.37,,2013-04-04 10:53:00,
2013-04-04 06:02:00,42.0,40.0,29.88,SW,225,1.0,7.0,91,0.01,,,0.38,,2013-04-04 11:02:00,
2013-04-04 06:12:00,42.0,40.0,29.88,SW,225,1.0,7.0,91,0.01,,,0.38,,2013-04-04 11:12:00,
2013-04-04 06:22:00,42.0,40.0,29.88,SSW,202,0.0,2.0,92,0.01,,,0.38,,2013-04-04 11:22:00,
2013-04-04 06:32:00,42.0,40.0,29.88,SW,225,0.0,2.0,92,0.01,,,0.38,,2013-04-04 11:32:00,
2013-04-04 06:42:00,42.0,40.0,29.88,SW,225,0.0,2.0,92,0.01,,,0.38,,2013-04-04 11:42:00,
2013-04-04 06:54:00,42.0,40.0,29.88,South,180,0.0,2.0,92,0.01,,,0.38,,2013-04-04 11:54:00,
2013-04-04 07:02:00,42.0,40.0,29.88,SW,225,0.0,1.0,92,0.00,,,0.38,,2013-04-04 12:02:00,
2013-04-04 07:12:00,42.0,40.0,29.88,SW,225,0.0,1.0,92,0.00,,,0.38,,2013-04-04 12:12:00,
2013-04-04 07:22:00,42.0,40.0,29.89,South,180,0.0,1.0,92,0.01,,,0.39,,2013-04-04 12:22:00,
2013-04-04 07:32:00,42.0,40.0,29.88,SSW,202,0.0,1.0,92,0.01,,,0.39,,2013-04-04 12:32:00,
2013-04-04 07:43:00,42.0,40.0,29.88,SSW,202,0.0,1.0,92,0.01,,,0.39,,2013-04-04 12:43:00,
2013-04-04 07:52:00,42.0,40.0,29.89,SW,225,0.0,1.0,92,0.01,,,0.39,,2013-04-04 12:52:00,
2013-04-04 08:02:00,42.0,40.0,29.89,South,180,0.0,4.0,92,0.01,,,0.39,,2013-04-04 13:02:00,
2013-04-04 08:12:00,42.0,40.0,29.89,South,180,0.0,4.0,92,0.01,,,0.39,,2013-04-04 13:12:00,
2013-04-04 08:22:00,42.0,40.0,29.89,South,180,0.0,4.0,92,0.01,,,0.39,,2013-04-04 13:22:00,
2013-04-04 08:32:00,42.0,40.0,29.89,South,180,0.0,1.0,92,0.00,,,0.39,,2013-04-04 13:32:00,
2013-04-04 08:42:00,42.0,40.0,29.89,South,180,0.0,1.0,92,0.00,,,0.39,,2013-04-04 13:42:00,
2013-04-04 08:53:00,42.0,40.0,29.90,WSW,248,0.0,1.0,92,0.00,,,0.39,,2013-04-04 13:53:00,
2013-04-04 09:03:00,42.0,40.0,29.89,SW,225,0.0,2.0,91,0.00,,,0.39,,2013-04-04 14:03:00,
2013-04-04 09:13:00,42.0,40.0,29.89,SW,225,0.0,2.0,91,0.00,,,0.39,,2013-04-04 14:13:00,
2013-04-04 09:22:00,43.0,41.0,29.89,South,180,0.0,3.0,91,0.00,,,0.39,,2013-04-04 14:22:00,
2013-04-04 09:32:00,43.0,41.0,29.89,South,180,0.0,3.0,91,0.00,,,0.39,,2013-04-04 14:32:00,
2013-04-04 09:42:00,43.0,41.0,29.89,South,180,0.0,3.0,91,0.00,,,0.39,,2013-04-04 14:42:00,
2013-04-04 09:53:00,43.0,41.0,29.89,South,180,0.0,3.0,91,0.00,,,0.39,,2013-04-04 14:53:00,
2013-04-04 10:02:00,44.0,41.0,29.90,SW,225,0.0,1.0,88,0.00,,,0.39,,2013-04-04 15:02:00,
2013-04-04 10:12:00,44.0,41.0,29.90,SW,225,0.0,1.0,88,0.00,,,0.39,,2013-04-04 15:12:00,
2013-04-04 10:23:00,45.0,41.0,29.89,SW,225,0.0,1.0,87,0.00,,,0.39,,2013-04-04 15:23:00,
2013-04-04 10:33:00,46.0,41.0,29.90,SW,225,0.0,1.0,83,0.00,,,0.39,,2013-04-04 15:33:00,
2013-04-04 10:43:00,46.0,41.0,29.90,SW,225,0.0,1.0,83,0.00,,,0.39,,2013-04-04 15:43:00,
2013-04-04 10:53:00,46.0,40.0,29.90,SW,225,0.0,2.0,78,0.00,,,0.39,,2013-04-04 15:53:00,
2013-04-04 11:03:00,47.0,40.0,29.91,SW,225,0.0,1.0,77,0.00,,,0.39,,2013-04-04 16:03:00,
2013-04-04 11:12:00,47.0,40.0,29.91,SW,225,0.0,1.0,77,0.00,,,0.39,,2013-04-04 16:12:00,
2013-04-04 11:24:00,47.0,39.0,29.91,SW,225,0.0,1.0,75,0.00,,,0.39,,2013-04-04 16:24:00,
2013-04-04 11:32:00,47.0,39.0,29.91,SW,225,0.0,2.0,74,0.00,,,0.39,,2013-04-04 16:32:00,
2013-04-04 11:42:00,47.0,39.0,29.91,SW,225,0.0,2.0,74,0.00,,,0.39,,2013-04-04 16:42:00,
2013-04-04 11:53:00,47.0,39.0,29.92,SSW,202,0.0,2.0,75,0.00,,,0.39,,2013-04-04 16:53:00,
2013-04-04 12:03:00,47.0,40.0,29.91,SW,225,0.0,6.0,76,0.01,,,0.40,,2013-04-04 17:03:00,
2013-04-04 12:13:00,47.0,40.0,29.91,SW,225,0.0,6.0,76,0.01,,,0.40,,2013-04-04 17:13:00,
2013-04-04 12:22:00,46.0,39.0,29.92,South,180,0.0,1.0,77,0.01,,,0.40,,2013-04-04 17:22:00,
2013-04-04 12:33:00,46.0,40.0,29.92,South,180,0.0,2.0,79,0.02,,,0.41,,2013-04-04 17:33:00,
2013-04-04 12:42:00,46.0,40.0,29.92,South,180,0.0,2.0,79,0.02,,,0.41,,2013-04-04 17:42:00,
2013-04-04 12:52:00,46.0,40.0,29.92,South,180,0.0,2.0,80,0.02,,,0.41,,2013-04-04 17:52:00,
2013-04-04 13:02:00,45.0,40.0,29.92,SW,225,0.0,1.0,83,0.05,,,0.45,,2013-04-04 18:02:00,
2013-04-04 13:12:00,45.0,40.0,29.92,SW,225,0.0,1.0,83,0.05,,,0.45,,2013-04-04 18:12:00,
2013-04-04 13:22:00,45.0,40.0,29.91,SW,225,0.0,1.0,83,0.07,,,0.47,,2013-04-04 18:22:00,
2013-04-04 13:32:00,46.0,42.0,29.91,SW,225,4.0,7.0,85,0.07,,,0.48,,2013-04-04 18:32:00,
2013-04-04 13:43:00,46.0,42.0,29.91,SW,225,4.0,7.0,85,0.07,,,0.48,,2013-04-04 18:43:00,
2013-04-04 13:52:00,46.0,41.0,29.90,SSW,202,0.0,2.0,84,0.06,,,0.48,,2013-04-04 18:52:00,
2013-04-04 14:02:00,46.0,41.0,29.90,SW,225,0.0,5.0,83,0.04,,,0.50,,2013-04-04 19:02:00,
2013-04-04 14:12:00,46.0,41.0,29.90,SW,225,0.0,5.0,83,0.04,,,0.50,,2013-04-04 19:12:00,
2013-04-04 14:22:00,47.0,41.0,29.89,SW,225,0.0,2.0,80,0.02,,,0.50,,2013-04-04 19:22:00,
2013-04-04 14:32:00,47.0,41.0,29.89,SW,225,1.0,3.0,79,0.01,,,0.50,,2013-04-04 19:32:00,
2013-04-04 14:42:00,47.0,41.0,29.89,SW,225,1.0,3.0,79,0.01,,,0.50,,2013-04-04 19:42:00,
2013-04-04 14:52:00,47.0,41.0,29.89,SW,225,1.0,3.0,79,0.01,,,0.50,,2013-04-04 19:52:00,
2013-04-04 15:03:00,47.0,41.0,29.89,SW,225,1.0,3.0,79,0.01,,,0.50,,2013-04-04 20:03:00,
2013-04-04 15:23:00,50.0,42.0,29.87,SE,135,0.0,7.0,75,0.00,,,0.50,,2013-04-04 20:23:00,
2013-04-04 15:33:00,49.0,40.0,29.86,South,180,0.0,5.0,71,0.00,,,0.50,,2013-04-04 20:33:00,
2013-04-04 15:42:00,49.0,40.0,29.86,South,180,0.0,5.0,71,0.00,,,0.50,,2013-04-04 20:42:00,
2013-04-04 15:53:00,49.0,41.0,29.87,South,180,0.0,2.0,73,0.00,,,0.50,,2013-04-04 20:53:00,
2013-04-04 16:02:00,49.0,41.0,29.85,South,180,4.0,7.0,75,0.00,,,0.50,,2013-04-04 21:02:00,
2013-04-04 16:12:00,49.0,41.0,29.85,South,180,4.0,7.0,75,0.00,,,0.50,,2013-04-04 21:12:00,
2013-04-04 16:22:00,48.0,40.0,29.86,SSE,158,4.0,7.0,75,0.00,,,0.50,,2013-04-04 21:22:00,
2013-04-04 16:32:00,48.0,41.0,29.86,South,180,0.0,9.0,76,0.00,,,0.50,,2013-04-04 21:32:00,
2013-04-04 16:43:00,48.0,41.0,29.86,South,180,0.0,9.0,76,0.00,,,0.50,,2013-04-04 21:43:00,
2013-04-04 16:53:00,48.0,41.0,29.86,South,180,0.0,9.0,76,0.00,,,0.50,,2013-04-04 21:53:00,
2013-04-04 17:03:00,49.0,40.0,29.86,SW,225,0.0,7.0,71,0.00,,,0.50,,2013-04-04 22:03:00,
2013-04-04 17:12:00,49.0,40.0,29.86,SW,225,0.0,7.0,71,0.00,,,0.50,,2013-04-04 22:12:00,
2013-04-04 17:23:00,49.0,40.0,29.86,South,180,0.0,2.0,70,0.00,,,0.50,,2013-04-04 22:23:00,
2013-04-04 17:33:00,51.0,40.0,29.87,SW,225,4.0,9.0,67,0.00,,,0.50,,2013-04-04 22:33:00,
2013-04-04 17:42:00,51.0,40.0,29.87,SW,225,4.0,9.0,67,0.00,,,0.50,,2013-04-04 22:42:00,
2013-04-04 17:53:00,52.0,40.0,29.87,SW,225,0.0,2.0,63,0.00,,,0.50,,2013-04-04 22:53:00,
2013-04-04 18:02:00,51.0,38.0,29.87,SW,225,0.0,5.0,62,0.00,,,0.50,,2013-04-04 23:02:00,
2013-04-04 18:12:00,51.0,38.0,29.87,SW,225,0.0,5.0,62,0.00,,,0.50,,2013-04-04 23:12:00,
2013-04-04 18:22:00,53.0,39.0,29.86,SW,225,0.0,2.0,60,0.00,,,0.50,,2013-04-04 23:22:00,
2013-04-04 18:32:00,53.0,39.0,29.86,SW,225,0.0,2.0,59,0.00,,,0.50,,2013-04-04 23:32:00,
2013-04-04 18:42:00,53.0,39.0,29.86,SW,225,0.0,2.0,59,0.00,,,0.50,,2013-04-04 23:42:00,
2013-04-04 18:52:00,54.0,39.0,29.86,SW,225,0.0,1.0,56,0.00,,,0.50,,2013-04-04 23:52:00,
2013-04-04 19:02:00,52.0,38.0,29.87,SW,225,0.0,1.0,59,0.00,,,0.50,,2013-04-05 00:02:00,
2013-04-04 19:12:00,52.0,38.0,29.87,SW,225,0.0,1.0,59,0.00,,,0.50,,2013-04-05 00:12:00,
2013-04-04 19:22:00,55.0,38.0,29.86,SW,225,0.0,1.0,53,0.00,,,0.50,,2013-04-05 00:22:00,
2013-04-04 19:32:00,55.0,37.0,29.85,SW,225,0.0,1.0,50,0.00,,,0.50,,2013-04-05 00:32:00,
2013-04-04 19:42:00,55.0,37.0,29.85,SW,225,0.0,1.0,50,0.00,,,0.50,,2013-04-05 00:42:00,
2013-04-04 19:52:00,53.0,36.0,29.85,West,270,0.0,0.0,52,0.00,,,0.50,,2013-04-05 00:52:00,
2013-04-04 20:02:00,51.0,36.0,29.86,South,180,0.0,1.0,56,0.00,,,0.50,,2013-04-05 01:02:00,
2013-04-04 20:12:00,51.0,36.0,29.86,South,180,0.0,1.0,56,0.00,,,0.50,,2013-04-05 01:12:00,
2013-04-04 20:22:00,48.0,35.0,29.86,South,180,0.0,0.0,61,0.00,,,0.50,,2013-04-05 01:22:00,
2013-04-04 20:32:00,47.0,36.0,29.86,North,360,0.0,0.0,66,0.00,,,0.50,,2013-04-05 01:32:00,
2013-04-04 20:42:00,47.0,36.0,29.86,North,360,0.0,0.0,66,0.00,,,0.50,,2013-04-05 01:42:00,
2013-04-04 20:52:00,45.0,36.0,29.87,North,360,0.0,0.0,70,0.00,,,0.50,,2013-04-05 01:52:00,
2013-04-04 21:03:00,45.0,37.0,29.87,East,90,0.0,0.0,73,0.00,,,0.50,,2013-04-05 02:03:00,
2013-04-04 21:12:00,45.0,37.0,29.87,East,90,0.0,0.0,73,0.00,,,0.50,,2013-04-05 02:12:00,
2013-04-04 21:22:00,44.0,36.0,29.88,East,90,0.0,0.0,74,0.00,,,0.50,,2013-04-05 02:22:00,
2013-04-04 21:32:00,44.0,37.0,29.88,East,90,0.0,0.0,77,0.00,,,0.50,,2013-04-05 02:32:00,
2013-04-04 21:42:00,44.0,37.0,29.88,East,90,0.0,0.0,77,0.00,,,0.50,,2013-04-05 02:42:00,
2013-04-04 21:52:00,44.0,38.0,29.88,SE,135,0.0,0.0,78,0.00,,,0.50,,2013-04-05 02:52:00,
2013-04-04 22:02:00,44.0,38.0,29.88,SE,135,0.0,0.0,79,0.00,,,0.50,,2013-04-05 03:02:00,
2013-04-04 22:12:00,44.0,38.0,29.88,SE,135,0.0,0.0,79,0.00,,,0.50,,2013-04-05 03:12:00,
2013-04-04 22:22:00,43.0,38.0,29.89,SE,135,0.0,0.0,81,0.00,,,0.50,,2013-04-05 03:22:00,
2013-04-04 22:32:00,43.0,38.0,29.89,SE,135,0.0,0.0,81,0.00,,,0.50,,2013-04-05 03:32:00,
2013-04-04 22:43:00,43.0,38.0,29.89,SE,135,0.0,0.0,81,0.00,,,0.50,,2013-04-05 03:43:00,
2013-04-04 22:54:00,42.0,37.0,29.91,North,360,0.0,0.0,81,0.00,,,0.50,,2013-04-05 03:54:00,
2013-04-04 23:02:00,42.0,37.0,29.90,North,360,0.0,0.0,82,0.00,,,0.50,,2013-04-05 04:02:00,
2013-04-04 23:12:00,42.0,37.0,29.90,North,360,0.0,0.0,82,0.00,,,0.50,,2013-04-05 04:12:00,
2013-04-04 23:22:00,41.0,36.0,29.91,North,360,0.0,0.0,83,0.00,,,0.50,,2013-04-05 04:22:00,
2013-04-04 23:32:00,41.0,36.0,29.91,South,180,0.0,0.0,83,0.00,,,0.50,,2013-04-05 04:32:00,
2013-04-04 23:42:00,41.0,36.0,29.91,South,180,0.0,0.0,83,0.00,,,0.50,,2013-04-05 04:42:00,
2013-04-04 23:52:00,41.0,37.0,29.92,South,180,0.0,0.0,84,0.00,,,0.50,,2013-04-05 04:52:00,